RH
73 72 70 69 70 71 72 72 73 73 72 70 69 68 66 64 63 62 61 60 58 56 54 52 52 53 54 52 49 45 39 34 30 27 26 26 27 29 32 35 37 40 43 44 45 45 44 42 39 35 31 27 23 20 17 15 13 11 10 9 9 8 7 7 7 7 7 8 8 9 10 11 12 13 14 15 17 18 19 20 20 20 19 18 17 17
73 72 71 70 71 72 73 73 72 71 69 67 65 63 61 59 57 56 54 53 51 50 49 49 50 50 50 46 41 36 31 27 26 25 26 28 31 34 37 40 42 44 46 46 45 44 41 37 33 29 25 21 18 16 13 12 11 10 9 8 8 7 7 7 8 9 9 10 11 12 13 14 15 16 18 19 20 21 22 21 21 19 18 18 19 20
73 72 71 71 72 73 73 71 69 67 65 62 59 56 54 52 50 49 47 46 45 45 45 46 45 44 42 37 32 28 26 25 26 28 30 33 36 39 42 44 46 47 47 45 42 39 35 30 26 22 19 17 14 13 11 10 9 9 8 7 7 7 8 9 10 11 13 14 15 16 16 17 18 19 21 22 23 23 23 21 20 19 20 22 25 27
71 71 71 71 71 71 69 67 64 61 59 56 54 51 49 47 45 43 43 42 42 42 42 42 40 37 33 29 27 26 26 27 30 33 36 39 42 44 46 47 47 46 44 40 36 32 27 24 20 18 15 13 12 11 10 9 8 8 7 7 8 9 10 12 14 16 17 18 18 18 19 20 21 23 24 25 24 23 22 21 21 22 25 29 32 35
70 70 70 69 68 67 63 61 58 56 53 51 49 47 45 43 41 40 40 40 40 39 38 36 33 30 27 26 26 28 30 33 36 39 42 44 46 48 48 47 45 42 38 33 29 25 21 18 16 14 12 11 10 9 9 8 8 7 7 8 9 11 14 17 18 20 21 21 20 20 21 22 24 25 26 25 24 22 21 22 25 29 33 36 38 39
68 69 68 66 64 61 57 55 52 50 48 46 44 42 41 39 38 38 37 37 36 35 33 31 29 28 27 28 31 33 36 39 42 45 47 48 48 47 46 43 39 35 30 26 22 19 17 15 13 12 10 10 9 8 8 7 7 8 8 10 13 16 19 21 22 23 23 22 22 22 23 25 27 27 26 24 22 22 23 27 31 35 39 40 41 41
67 67 64 62 58 55 52 49 47 45 44 42 41 39 38 37 36 36 35 34 33 32 30 30 30 30 32 34 37 40 43 45 47 48 49 48 46 43 40 35 31 27 23 20 18 15 14 12 11 10 9 9 8 8 7 8 8 9 11 14 17 20 22 24 24 24 23 23 23 24 26 28 28 27 25 22 22 24 28 33 37 40 42 42 43 43
65 63 60 57 54 51 48 46 44 42 41 40 39 39 38 37 35 34 33 32 31 31 31 32 33 35 37 40 43 46 48 49 49 48 46 43 40 36 31 27 24 21 18 16 14 13 11 10 10 9 8 8 8 8 8 9 10 12 15 18 21 23 24 24 24 23 23 24 25 27 29 29 27 25 22 23 25 29 34 38 41 43 43 43 44 44
61 58 55 52 50 48 46 44 42 40 39 38 38 38 38 37 36 34 33 32 32 32 33 35 38 40 43 45 47 49 49 48 46 43 39 35 31 27 24 21 18 16 14 13 12 10 10 9 9 8 8 9 9 9 10 11 13 16 19 22 24 25 25 24 23 23 23 25 27 29 30 28 25 23 22 25 30 35 39 42 43 44 44 44 44 44
56 53 50 48 46 45 44 43 41 39 38 37 37 37 36 36 35 35 34 35 35 36 38 41 43 45 47 48 48 47 45 42 38 35 31 27 24 21 18 16 15 13 12 11 10 9 9 9 9 9 10 11 11 12 13 15 17 19 22 24 25 26 25 24 23 23 25 27 29 30 29 25 23 23 25 30 35 39 42 43 44 43 43 43 42 41
50 48 46 45 43 43 42 41 40 38 36 36 36 35 35 35 35 36 36 38 40 42 43 45 46 46 46 45 43 40 37 33 29 26 23 20 18 16 14 13 12 11 10 9 9 9 9 10 11 12 13 14 15 16 17 18 20 23 25 26 26 26 25 24 24 25 27 30 30 29 26 23 23 26 30 35 40 43 44 44 43 42 40 38 36 35
46 44 43 42 42 41 41 39 38 36 35 35 35 35 35 36 37 39 40 42 43 45 45 44 43 42 41 38 35 31 28 25 22 19 17 16 14 13 11 10 10 9 9 8 9 9 10 12 14 16 18 19 20 20 20 22 23 25 27 27 27 26 25 24 25 27 30 31 29 27 23 23 26 30 36 40 43 44 43 42 40 37 35 32 30 29
43 42 41 40 39 39 38 38 37 36 35 35 35 36 37 39 41 42 44 44 44 44 43 40 37 35 32 29 26 23 21 19 17 15 14 12 11 10 10 9 8 8 8 9 10 12 14 17 19 22 24 25 24 24 23 24 25 26 28 28 27 26 25 26 27 29 31 30 27 24 23 26 30 36 41 43 44 43 41 38 34 31 29 27 26 26
40 39 38 38 37 37 36 35 35 35 35 36 37 39 41 42 43 44 44 43 41 38 35 32 29 26 24 21 19 18 16 14 13 12 11 10 9 9 8 8 8 9 10 11 13 16 19 22 25 28 29 29 28 26 25 25 26 27 28 27 27 26 25 27 29 31 32 28 26 24 25 30 35 40 44 44 42 39 36 32 30 28 27 26 27 27
38 37 36 36 35 35 35 35 35 35 37 38 40 41 41 41 41 40 39 36 33 29 26 24 22 20 18 17 15 14 13 12 11 10 9 9 8 8 8 9 10 11 13 16 18 21 25 28 30 32 33 32 30 27 26 26 26 27 27 27 26 26 26 29 31 32 30 26 25 25 29 35 40 43 44 42 38 34 31 29 28 28 29 29 30 30
35 35 35 34 34 34 34 35 36 37 38 39 39 39 38 36 35 32 30 27 24 22 20 18 17 16 15 14 13 11 10 10 9 8 8 8 8 9 9 11 12 15 18 21 24 27 29 32 34 35 35 33 30 28 26 25 26 26 26 26 26 26 28 31 32 31 28 25 26 29 35 40 43 44 42 37 34 30 28 29 30 31 32 33 33 32
33 32 32 32 33 33 33 35 36 37 37 36 34 33 31 28 26 24 22 20 19 18 16 15 14 13 12 11 11 10 9 8 8 8 8 8 9 10 12 14 17 19 22 26 28 31 33 34 35 35 35 32 30 27 25 25 25 25 25 25 25 27 30 32 32 29 26 26 29 34 40 43 43 41 37 33 30 29 30 32 34 35 35 34 33 32
30 30 30 31 31 31 31 32 32 32 31 29 27 25 23 22 20 19 18 17 16 15 14 13 12 11 10 9 9 9 8 8 8 9 9 10 11 13 16 18 21 23 26 29 31 33 34 35 35 35 34 31 29 26 25 24 24 24 24 24 26 29 32 32 30 27 26 29 34 39 43 43 41 37 32 30 30 31 34 35 36 36 35 33 32 30
26 27 28 28 28 28 28 28 27 26 25 23 22 20 19 18 17 17 16 15 14 13 12 11 10 10 9 9 9 9 9 10 10 11 12 13 15 17 20 22 25 27 29 31 33 34 34 34 34 33 32 30 27 25 24 24 23 23 23 25 27 30 33 31 28 26 28 33 39 43 43 40 36 33 30 31 33 35 36 37 36 35 34 32 31 29
24 25 26 26 26 25 25 24 23 22 21 20 19 18 17 16 16 15 14 13 12 11 10 9 9 9 9 9 9 10 11 12 13 14 16 17 19 21 23 25 27 29 30 32 33 33 33 32 32 31 30 28 26 24 23 23 23 23 23 26 29 31 31 29 27 28 33 38 42 43 41 36 33 31 32 34 35 36 37 36 36 35 33 32 30 29
23 23 23 24 24 23 22 21 20 19 19 18 17 16 16 15 14 13 13 11 10 10 9 9 9 9 10 10 11 12 13 15 16 18 19 20 22 23 25 27 28 29 30 31 31 31 31 31 30 30 28 26 25 23 22 22 22 23 24 27 30 31 29 27 28 32 38 42 43 41 37 34 33 33 35 36 36 37 36 36 35 34 33 31 30 28
22 21 21 22 22 21 20 19 18 18 17 16 16 15 14 13 12 12 11 10 9 9 9 9 10 10 11 12 14 15 17 18 20 21 22 23 24 25 26 27 28 28 29 29 30 30 30 30 29 28 27 26 24 23 22 22 22 23 26 29 30 30 28 28 31 36 42 43 41 37 34 33 34 35 37 37 37 36 36 35 34 33 32 31 29 28
20 20 20 20 20 19 19 18 17 17 16 15 14 13 12 11 10 10 9 9 9 10 10 11 12 13 14 15 17 18 19 21 22 23 24 25 26 26 26 27 27 28 28 28 29 29 29 29 29 28 26 25 23 22 21 21 22 24 27 30 30 29 27 30 35 40 43 41 38 35 34 35 36 37 37 37 36 36 36 35 34 33 32 31 30 28
19 19 19 19 18 18 17 17 16 16 15 14 13 12 11 10 10 9 9 10 10 11 12 13 14 15 17 18 19 20 21 22 23 24 25 26 26 26 27 27 28 28 28 28 29 29 29 29 29 28 26 24 23 22 21 21 23 26 29 30 29 28 29 34 39 42 42 39 36 35 36 37 38 37 37 36 36 36 35 35 34 33 32 31 30 28
18 18 18 18 17 17 17 16 15 15 14 13 11 10 10 10 10 10 10 11 12 13 14 15 17 18 19 19 20 21 21 23 24 25 25 26 26 27 27 28 28 28 28 28 29 30 30 30 29 28 26 24 23 21 21 22 24 27 30 29 28 29 33 38 42 42 40 37 36 36 37 38 37 37 36 36 35 35 35 34 34 33 32 31 30 28
18 18 18 17 17 17 16 15 14 13 12 11 10 10 10 10 10 11 12 13 14 15 16 17 18 19 20 21 21 21 22 23 24 25 25 26 27 28 28 29 29 29 29 30 31 32 32 31 30 28 26 24 22 21 21 23 26 29 30 28 28 31 37 41 42 41 38 37 37 37 38 37 37 36 35 35 35 34 34 33 33 32 31 30 29 27
17 17 17 17 17 16 15 14 13 12 11 10 10 10 10 11 12 13 15 16 17 17 18 19 19 20 21 22 22 23 23 24 25 25 26 28 29 30 30 30 31 31 31 32 33 34 34 33 30 28 26 24 22 21 22 25 28 30 29 28 30 35 40 42 41 39 37 38 38 38 38 37 36 35 35 35 34 34 33 32 32 31 30 29 27 26
17 17 17 17 16 15 14 13 11 10 10 10 10 11 12 13 15 16 17 17 18 18 19 20 20 21 22 23 24 24 24 25 26 27 28 30 31 32 32 33 33 33 33 34 35 35 36 34 31 28 25 23 22 22 24 27 29 30 28 30 34 38 42 41 40 38 38 38 38 38 37 36 35 35 34 34 33 32 31 31 30 29 28 26 25 24
18 17 17 16 15 13 12 11 10 10 10 11 12 13 15 16 17 17 18 18 19 19 20 21 22 23 24 25 25 26 26 27 28 29 31 33 34 34 34 35 35 35 36 36 37 37 37 35 32 28 25 23 23 24 27 29 30 30 30 33 38 41 42 41 39 39 39 39 38 37 36 35 34 34 33 32 31 30 29 28 27 26 25 24 23 22
18 17 16 15 13 12 10 10 10 10 12 13 14 16 17 17 18 18 18 19 19 20 21 22 23 25 26 27 28 28 28 28 30 32 34 36 37 37 37 38 39 39 39 38 38 37 37 35 32 29 25 24 24 26 30 30 30 30 33 38 41 43 42 40 40 40 40 39 38 36 35 34 34 33 32 30 29 28 27 26 25 24 23 22 21 20
17 16 14 12 11 10 10 10 11 12 14 15 17 17 18 18 18 19 19 20 20 21 23 24 26 27 28 29 30 31 30 30 31 34 36 39 40 40 41 42 42 42 41 40 39 37 35 34 31 29 26 26 28 30 32 31 31 33 38 42 43 43 42 41 41 41 40 39 37 36 35 34 32 31 30 29 27 26 25 24 22 21 20 19 19 19
15 14 12 10 10 10 10 12 13 15 16 17 18 18 18 18 18 19 19 21 22 23 25 26 27 28 29 30 31 32 32 32 34 36 39 42 43 44 44 45 45 45 43 42 39 36 33 31 30 29 29 30 32 33 32 31 34 37 43 44 44 43 42 43 43 42 41 39 37 35 34 33 31 30 28 26 25 24 22 21 20 18 18 18 18 19
13 11 10 10 10 11 12 14 15 17 18 18 18 18 18 18 18 19 20 22 24 25 27 28 29 29 30 31 32 33 34 36 38 40 43 45 46 47 47 48 48 47 45 42 38 35 31 29 28 29 32 34 34 33 32 34 38 42 45 45 44 43 43 44 43 42 41 39 37 36 34 32 30 28 26 24 23 21 20 18 17 16 16 18 19 21
11 10 9 10 12 13 15 16 17 18 18 18 18 17 17 18 19 20 22 24 25 26 28 28 29 30 31 32 34 35 37 40 43 45 48 49 50 50 50 49 48 46 44 40 36 33 29 28 29 32 36 36 34 33 34 39 43 45 45 44 44 44 45 44 44 42 41 39 37 35 33 31 28 26 24 22 20 18 17 16 15 16 18 20 22 24
9 10 10 12 14 16 17 18 18 18 18 17 17 17 17 19 20 22 24 25 26 27 27 28 29 30 32 35 37 40 43 46 48 50 52 53 52 52 51 50 47 45 41 37 34 30 29 30 34 36 37 35 35 36 40 44 46 46 45 44 44 44 45 44 43 42 40 38 36 34 31 28 25 23 20 18 17 15 14 14 16 18 21 23 26 31
10 11 13 15 17 18 18 18 18 17 17 16 17 17 18 20 22 23 25 25 26 26 26 27 29 31 34 38 42 46 50 51 53 54 54 53 53 52 51 48 45 41 38 34 31 30 32 35 37 37 36 36 39 43 47 48 47 46 44 44 44 44 44 43 42 40 39 36 33 30 27 24 21 18 16 15 14 13 13 16 19 22 24 29 37 45
12 14 16 17 18 18 18 18 17 16 16 16 17 19 20 22 23 24 25 25 25 25 26 28 31 35 39 43 48 51 54 55 55 54 53 52 51 50 48 45 41 37 33 31 31 33 37 39 38 37 37 41 45 49 51 50 48 47 45 45 44 44 43 42 40 38 35 32 28 25 21 19 16 14 13 12 13 14 18 22 25 29 35 44 51 55
15 17 18 18 18 18 17 16 16 16 16 18 19 21 22 23 24 24 23 23 24 25 27 31 35 40 45 49 52 54 55 54 53 51 50 49 48 47 45 41 37 33 30 31 34 38 40 39 39 40 44 48 51 52 52 51 50 50 48 47 45 44 42 40 37 34 30 26 23 19 16 14 13 12 12 14 17 20 24 29 36 45 55 60 60 56
17 18 19 18 18 16 15 15 16 16 18 19 21 22 23 23 22 22 22 22 24 27 31 36 41 46 50 52 53 53 52 50 49 48 47 47 46 43 40 36 33 32 32 36 38 39 38 39 42 47 52 54 54 53 52 52 52 52 51 48 45 42 39 36 33 29 25 21 17 14 13 12 13 14 17 21 27 34 41 51 59 64 67 63 58 52
18 19 18 17 16 15 15 15 17 18 20 21 22 22 22 21 21 21 21 23 27 31 36 42 46 49 51 51 50 49 47 46 46 45 45 44 42 39 36 34 34 35 39 40 39 37 37 43 49 54 57 56 55 55 54 54 54 52 51 48 44 40 35 31 27 23 19 16 14 13 13 15 18 23 28 36 44 53 62 68 70 69 65 59 54 50
18 18 16 15 14 15 15 17 18 20 21 21 21 21 20 19 19 21 23 27 32 37 42 46 48 49 47 46 44 44 43 43 43 43 42 40 37 35 34 36 39 41 42 39 37 38 44 51 56 57 57 56 56 56 56 55 53 51 48 44 40 35 30 25 21 18 15 14 14 16 19 24 31 39 49 58 65 70 73 73 71 68 62 58 54 50
17 15 14 14 14 15 17 18 20 20 21 20 19 19 18 18 20 23 27 33 38 43 46 47 47 45 43 41 40 40 41 41 41 39 37 35 34 35 38 41 43 42 39 37 40 46 54 57 58 58 58 58 58 57 55 53 50 47 43 39 33 28 22 19 17 16 15 17 20 25 32 42 53 62 68 71 72 73 74 73 70 67 63 60 57 53
14 13 13 14 15 17 18 19 20 20 19 18 18 17 17 19 23 27 33 38 43 45 46 44 42 39 37 36 36 37 38 37 36 35 34 34 36 40 44 43 41 39 38 43 49 55 58 58 59 59 60 60 58 56 53 50 46 42 37 31 26 22 18 17 17 18 21 26 33 42 53 61 68 71 72 73 73 74 74 73 71 68 65 61 59 56
13 12 13 15 17 18 19 19 19 18 17 17 16 17 18 22 27 32 38 42 44 44 42 39 36 34 33 33 33 33 33 33 32 33 35 39 43 45 44 40 39 40 45 52 57 59 59 59 60 61 61 59 57 53 49 45 40 35 30 25 21 19 18 20 22 27 33 43 54 64 69 72 72 73 73 73 73 74 74 74 72 69 66 64 62 62
12 13 15 17 18 19 19 18 18 17 16 16 17 18 21 26 32 37 42 44 43 40 36 33 32 32 32 32 31 29 29 30 33 37 42 45 45 43 39 40 43 49 55 58 60 60 60 62 62 61 60 57 53 49 44 39 34 28 24 21 20 20 22 26 33 41 52 61 67 71 72 72 73 73 73 73 73 74 74 74 72 70 68 67 67 68
13 15 17 18 19 18 18 17 16 16 15 16 18 21 25 31 36 41 43 42 38 34 30 29 29 30 30 29 28 28 29 33 38 43 46 43 40 39 40 47 53 58 60 60 60 61 63 63 63 61 58 53 48 43 38 33 28 25 22 22 24 27 31 39 49 59 67 70 71 72 73 73 72 72 73 73 73 73 74 73 71 70 70 70 70 70
15 17 18 19 18 18 17 16 15 15 16 17 20 24 30 36 40 43 42 37 33 29 27 27 27 28 27 27 28 30 35 40 43 44 41 38 38 42 50 56 60 61 60 60 61 63 63 62 60 57 53 48 42 36 31 28 26 25 26 27 31 37 45 55 62 67 70 71 72 72 72 72 73 73 73 73 73 73 73 72 71 71 71 71 71 71
17 18 19 19 18 17 16 15 15 16 17 19 23 29 35 40 42 41 38 32 28 26 26 26 26 26 26 27 31 36 42 44 43 39 35 37 44 52 59 61 61 61 60 61 63 63 63 60 57 52 47 41 35 31 28 27 27 29 31 35 42 51 62 66 69 71 72 73 73 73 72 73 73 73 72 72 72 72 72 72 72 71 71 71 71 71
18 19 19 18 17 16 15 15 15 17 19 23 28 33 39 41 41 38 33 28 26 25 25 25 25 26 28 33 38 42 45 41 37 34 36 45 53 59 61 61 61 62 63 64 64 63 61 57 51 46 40 35 31 29 29 31 32 35 39 47 55 62 67 69 71 72 73 73 73 73 73 73 73 73 72 72 71 71 72 71 71 71 70 70 70 70
19 19 19 18 17 16 15 15 17 19 22 27 32 37 41 40 37 33 28 26 24 24 24 24 26 29 34 40 44 44 41 35 33 37 46 54 59 60 59 60 62 64 66 65 64 61 57 51 45 39 35 32 31 32 35 37 40 44 52 60 65 68 69 71 72 73 73 73 73 73 73 74 73 73 72 71 71 71 71 71 70 70 70 70 70 70
19 19 18 17 16 15 15 17 19 22 26 32 36 40 41 37 33 28 25 24 23 23 23 25 29 35 41 45 44 40 33 33 38 47 57 60 60 58 58 61 64 66 66 64 61 57 51 44 38 35 35 35 36 39 42 44 49 56 64 66 68 69 71 72 72 73 73 73 73 74 74 73 73 72 71 71 71 71 71 71 71 71 71 71 71 70
Wind_Speed
61 63 65 65 66 66 67 67 67 67 68 67 67 67 67 67 68 68 69 70 70 71 71 72 72 72 72 72 72 73 73 73 73 74 74 75 76 77 78 79 80 80 81 82 82 82 82 82 82 82 82 82 83 83 84 85 86 87 88 89 90 90 89 87 85 83 80 78 75 72 68 65 62 59 57 56 55 54 54 54 54 55 54 54 53 52
62 63 65 66 66 67 67 67 67 67 67 67 67 67 68 68 68 69 70 70 71 71 71 72 72 72 72 72 73 73 73 74 74 75 76 77 78 79 80 80 81 81 82 82 82 82 82 83 83 83 83 84 85 85 86 88 89 89 90 90 89 87 85 83 80 77 73 70 67 64 61 58 56 55 54 53 53 53 53 53 53 52 51 50 48 47
62 64 65 65 66 67 67 67 67 67 67 67 68 68 68 69 69 70 70 71 71 72 72 72 72 72 73 73 73 74 74 75 76 77 78 79 79 80 81 81 82 82 82 82 83 83 83 83 84 84 85 86 87 88 89 90 90 90 89 88 86 83 80 76 72 69 65 62 60 57 56 54 53 53 52 52 52 52 52 51 50 49 47 45 43 42
63 64 65 65 66 66 66 67 67 67 67 67 68 68 69 69 70 70 71 71 71 72 72 72 72 73 73 74 74 75 76 77 78 79 79 80 81 81 82 82 82 82 83 83 83 84 84 85 86 87 88 89 89 90 90 90 90 88 86 84 81 77 73 68 64 61 59 56 55 54 53 52 52 52 52 52 51 51 50 48 46 44 42 41 40 40
64 64 65 65 66 66 66 66 67 67 67 68 68 69 69 70 70 71 71 71 71 72 72 72 73 73 74 75 76 77 77 78 79 80 81 81 82 82 82 82 83 83 83 84 84 85 86 87 88 89 90 91 91 91 90 89 87 85 82 78 74 69 64 61 58 55 54 53 53 52 52 52 51 51 51 50 49 48 46 44 42 41 40 40 40 40
64 64 65 65 66 66 66 67 67 68 68 69 69 69 70 70 71 71 72 72 72 72 72 73 73 74 75 76 77 78 79 80 80 81 82 82 82 82 83 83 83 83 84 85 86 87 88 90 91 91 92 91 91 89 88 86 83 80 76 71 66 61 57 55 53 52 52 52 51 51 51 51 51 50 49 48 47 45 43 41 40 40 40 40 40 40
64 64 65 65 66 66 66 67 68 68 69 69 70 70 71 71 72 72 73 73 73 73 74 74 74 75 76 77 78 79 80 81 81 82 82 82 83 83 83 83 84 85 86 87 88 90 91 92 92 92 91 90 88 86 84 81 77 73 68 63 59 55 53 51 51 51 50 51 50 50 50 50 49 48 47 45 44 42 40 39 39 40 40 40 41 41
64 65 65 65 66 67 67 68 68 69 70 70 71 71 72 72 73 73 74 74 74 75 75 76 76 76 77 77 78 80 81 82 82 82 83 83 83 84 84 85 86 87 88 89 91 92 92 92 91 90 88 86 84 82 79 75 71 66 61 57 53 51 50 50 50 50 50 49 49 49 49 48 47 46 44 43 41 40 39 39 39 40 40 41 41 41
64 65 65 66 66 67 68 69 70 70 71 71 72 72 73 74 74 75 75 75 75 75 76 77 78 78 78 79 79 80 81 82 82 83 83 84 84 85 86 87 88 89 90 91 92 92 91 90 88 86 84 82 79 76 72 69 64 59 55 52 50 49 49 49 49 49 48 48 48 48 47 46 45 43 42 40 39 39 39 39 40 40 41 41 41 41
64 65 66 67 67 68 68 70 70 71 72 72 73 73 74 74 75 76 76 76 76 76 77 78 78 79 80 80 80 80 81 82 83 83 84 85 86 87 88 89 91 91 92 92 92 90 88 86 84 81 78 76 73 70 66 62 57 53 51 49 48 48 48 48 48 48 47 47 47 46 45 44 43 41 39 38 38 38 39 40 40 41 41 41 41 41
65 66 67 67 68 69 70 70 71 72 73 73 74 75 75 75 75 76 76 77 78 78 78 79 79 79 80 81 81 82 82 82 83 85 86 87 88 89 91 92 92 92 92 91 89 86 83 80 77 75 72 69 67 63 60 56 52 50 48 48 48 48 48 48 47 47 46 46 46 45 43 42 40 39 38 38 38 39 40 41 41 41 41 41 41 41
66 67 67 68 69 70 71 72 72 73 74 74 75 76 77 77 77 77 77 78 79 79 80 80 80 80 80 80 81 83 83 84 85 87 88 90 91 92 93 93 92 91 89 86 83 80 77 73 70 68 65 63 61 58 55 52 49 47 47 47 47 47 47 47 46 46 46 45 44 43 41 39 38 37 37 38 39 40 40 41 41 41 41 41 41 40
67 68 68 69 70 71 72 73 74 74 75 75 76 76 77 78 78 79 79 79 80 80 80 80 81 81 81 81 82 84 85 87 88 89 91 92 93 93 92 91 90 87 84 80 77 73 69 66 64 62 60 58 56 54 51 48 47 46 46 46 46 46 46 46 46 45 45 44 42 41 39 38 37 37 38 38 40 40 41 41 41 40 40 40 39 39
68 69 69 70 71 72 73 74 75 75 76 76 77 77 78 78 79 79 79 80 81 81 81 81 81 82 83 83 85 86 88 89 91 92 92 93 92 91 89 87 84 81 77 73 69 66 63 60 58 56 55 54 52 50 48 46 46 45 46 46 46 45 45 45 45 44 43 42 41 39 38 37 37 37 38 39 40 40 40 40 40 39 39 38 38 37
69 70 70 71 72 73 74 74 75 76 77 77 78 78 79 79 79 80 80 81 81 82 82 82 83 84 85 86 88 89 91 92 92 92 92 91 89 87 83 80 77 73 69 65 62 60 58 55 54 53 52 51 49 48 46 45 45 45 45 44 44 44 44 44 43 43 42 40 39 37 37 36 37 38 39 39 40 39 39 39 38 37 37 36 36 35
70 70 71 72 73 74 75 75 76 77 78 78 79 79 79 79 80 80 81 81 82 83 84 84 86 87 89 90 91 92 92 92 92 90 88 86 84 80 76 72 69 66 62 59 57 55 53 52 51 50 49 48 47 46 45 44 44 44 43 43 43 43 43 43 42 41 40 39 37 37 36 37 37 38 39 39 39 38 38 37 36 36 35 35 34 34
71 72 72 73 74 75 76 77 77 78 78 79 80 80 80 80 80 81 82 83 84 85 86 88 89 90 91 93 93 93 91 90 88 86 83 79 76 73 69 65 62 59 57 55 53 52 50 49 49 48 47 47 46 45 44 44 43 43 42 42 42 42 41 41 41 40 38 37 36 36 36 37 38 38 38 38 37 36 36 35 35 35 34 34 33 33
72 73 74 75 76 76 77 78 78 79 80 80 80 81 81 81 81 82 83 85 86 88 89 91 92 92 92 92 92 91 88 85 82 79 76 72 69 66 62 59 57 54 53 51 50 49 49 48 47 47 46 45 45 44 43 43 42 41 41 41 40 40 40 40 39 38 37 36 36 36 37 37 37 37 37 36 35 35 34 34 34 33 33 32 32 32
74 75 75 76 77 78 79 79 79 80 80 81 81 82 82 83 83 84 86 87 89 90 92 92 93 92 91 89 88 86 82 78 75 72 69 66 62 60 57 55 53 51 50 49 49 48 47 47 46 46 45 45 44 43 43 42 41 40 40 39 39 39 38 38 37 36 35 35 36 36 37 37 37 36 35 35 34 33 33 33 32 32 31 31 31 31
75 76 77 77 78 79 80 80 80 80 81 82 82 83 84 85 86 87 89 90 91 92 93 92 91 89 87 84 81 79 75 71 68 66 63 60 58 56 54 52 51 50 49 48 48 47 47 46 46 45 44 44 43 43 42 41 40 39 39 38 38 37 37 36 35 35 35 35 36 36 36 36 36 35 34 33 33 32 32 31 31 31 30 30 30 30
77 78 78 79 79 79 80 81 81 81 82 83 84 85 87 88 89 90 91 92 92 92 91 89 87 84 81 78 74 71 68 65 63 61 59 57 55 54 52 51 50 49 48 48 47 47 46 46 45 45 44 44 43 42 41 40 39 38 37 37 36 36 35 34 34 34 34 35 35 36 36 35 34 33 33 32 31 31 30 30 29 29 29 29 29 29
77 78 79 79 79 80 80 81 82 82 83 84 86 88 90 91 92 93 93 92 91 89 87 84 81 78 74 71 68 66 63 61 60 59 57 56 54 53 52 51 50 49 48 48 47 46 46 46 45 45 44 43 43 42 41 39 38 37 36 35 35 34 33 33 33 33 34 35 35 35 34 34 33 32 32 31 30 30 29 29 28 28 28 29 29 29
78 79 79 79 79 80 81 81 83 84 85 87 89 90 92 93 93 92 91 89 87 84 81 78 74 71 68 65 63 62 60 59 58 58 57 55 54 53 52 51 51 50 49 48 47 46 46 45 45 44 44 43 42 41 40 38 37 36 35 34 33 33 32 32 32 33 34 34 34 33 33 32 32 31 31 30 30 29 28 28 28 28 28 28 28 28
79 79 79 79 80 80 81 83 84 86 88 90 91 93 93 93 92 90 88 85 81 78 74 71 68 66 64 62 61 60 59 58 58 57 57 55 54 53 52 51 51 50 48 47 46 46 45 44 44 43 43 42 41 40 39 37 36 34 33 33 32 31 31 31 32 32 33 33 32 32 31 31 31 31 30 29 29 28 28 27 27 27 27 28 28 28
79 79 79 80 81 82 83 85 87 89 91 92 93 93 92 91 88 86 82 78 75 72 69 66 64 63 62 61 60 60 59 58 58 57 56 55 54 52 51 50 50 49 48 46 45 44 44 43 42 42 42 41 40 39 37 35 34 33 32 31 31 30 30 31 31 32 32 31 31 31 30 30 30 30 29 29 28 28 27 27 27 27 27 27 28 28
79 79 80 81 82 84 85 87 89 91 92 93 92 91 89 86 83 79 76 72 69 67 65 64 62 61 61 61 60 60 59 58 57 57 56 55 53 52 50 49 48 48 46 45 44 43 42 41 41 40 40 39 38 37 35 34 32 31 31 30 30 29 30 30 30 31 31 30 30 30 30 30 30 29 29 28 28 27 27 27 27 27 27 27 27 28
79 80 81 83 84 86 88 90 91 92 92 91 89 86 83 80 76 73 70 67 66 64 63 63 62 62 61 61 60 60 59 58 57 55 54 53 52 51 49 48 47 46 45 43 42 41 40 40 39 39 38 38 36 35 33 32 31 30 30 29 29 29 29 29 30 30 30 29 29 30 30 30 30 29 29 28 28 27 27 27 26 26 26 27 27 27
80 81 83 85 87 89 90 91 92 91 89 87 84 81 77 74 71 68 66 65 64 63 63 63 63 62 62 61 60 59 58 56 55 54 53 52 50 49 48 47 46 45 43 42 40 39 38 38 38 37 37 36 34 33 31 30 29 29 29 29 28 28 29 29 29 29 29 29 29 30 30 30 30 29 29 29 28 28 27 27 26 26 26 26 26 26
81 83 85 87 89 90 91 91 90 87 84 81 78 74 71 68 67 65 64 64 64 64 64 63 63 62 61 60 59 57 56 54 53 52 51 50 49 47 46 46 44 43 42 40 38 37 36 36 36 36 35 33 32 31 29 28 28 28 28 28 28 28 28 28 28 28 29 29 30 30 30 30 30 30 30 29 29 28 28 27 27 26 26 26 25 24
83 85 87 89 90 90 89 88 85 82 78 75 71 69 67 65 64 64 64 64 64 64 63 63 62 60 59 58 57 55 54 52 51 50 49 48 47 46 45 44 43 42 40 38 36 34 33 33 33 33 33 31 30 29 28 27 27 27 27 28 28 28 28 28 28 28 29 29 30 30 31 31 31 30 30 30 29 28 28 27 26 26 25 24 24 22
86 87 89 90 90 88 86 83 79 75 72 69 66 65 64 64 64 64 64 64 64 63 62 61 60 58 57 55 54 53 52 51 49 48 47 47 46 45 44 43 42 40 38 37 35 32 30 30 30 31 30 29 28 27 26 26 26 26 27 27 27 27 27 27 28 29 29 30 31 31 31 31 31 31 30 30 29 28 28 27 26 24 23 22 20 18
88 89 89 88 87 84 80 76 72 69 66 64 64 63 63 64 64 64 64 63 62 61 60 59 57 56 54 53 52 51 50 49 48 47 46 46 45 44 43 41 40 38 37 35 33 31 29 27 27 27 27 27 26 26 25 25 25 26 26 26 26 26 27 27 28 29 30 31 31 32 32 32 32 31 31 30 29 28 27 26 24 22 21 19 16 14
89 89 87 85 82 78 74 70 67 64 63 62 62 63 63 64 64 63 63 62 60 59 57 56 55 53 52 51 50 50 49 48 48 47 46 45 44 42 41 40 38 36 34 33 31 29 27 25 24 24 24 24 25 25 25 25 25 25 25 25 25 26 26 28 29 30 31 32 32 32 32 32 32 32 31 30 29 27 25 24 22 19 17 14 12 10
88 86 83 80 75 71 68 65 63 62 62 62 62 63 63 63 62 62 60 59 58 56 55 53 52 52 51 50 49 49 48 47 47 46 45 44 42 41 39 37 35 33 32 30 28 27 25 23 22 21 22 23 23 24 24 24 24 25 25 25 25 25 27 28 29 30 31 32 32 33 33 32 32 31 30 29 27 25 23 20 18 15 12 9 7 6
84 81 77 73 69 66 63 62 61 61 62 62 63 63 62 61 60 59 57 56 55 53 52 51 51 50 50 49 49 48 47 46 46 45 44 42 40 39 37 35 33 31 29 27 25 24 22 21 20 20 21 22 23 23 24 24 24 24 24 24 25 26 27 28 30 31 32 32 32 32 32 31 31 29 28 26 24 21 19 16 12 9 7 5 4 4
79 75 71 67 64 62 61 61 61 62 62 62 62 62 60 59 57 56 54 53 52 51 51 50 50 49 49 48 48 47 46 45 44 43 41 40 38 36 34 31 29 27 26 24 22 20 19 19 19 19 20 21 22 23 23 24 24 24 25 25 26 27 28 29 30 31 32 32 32 31 31 29 28 26 24 22 19 16 13 9 6 3 2 2 2 2
72 69 65 63 61 60 61 61 62 62 62 62 61 59 57 56 54 53 52 51 50 50 50 49 49 49 48 47 47 46 45 44 42 40 39 37 34 32 30 28 26 24 22 21 19 17 17 17 18 19 20 21 21 22 22 23 24 25 25 26 27 28 29 30 31 32 32 31 30 29 28 26 24 21 19 16 13 9 5 2 1 2 3 3 2 1
67 63 61 60 60 60 61 61 62 61 61 59 58 56 54 53 52 51 50 50 49 49 49 49 48 48 47 46 45 44 43 41 39 37 35 33 31 28 26 24 22 21 19 18 16 15 15 16 17 18 20 20 21 21 22 23 24 25 27 28 29 30 30 31 31 31 30 29 28 26 23 21 18 15 11 8 4 1 2 4 5 5 4 3 2 1
62 60 60 60 60 61 61 61 61 60 58 56 55 53 51 50 50 49 49 49 49 48 48 48 47 46 45 44 43 41 40 38 36 33 31 29 27 24 22 20 19 18 17 16 15 14 15 16 17 18 19 20 20 21 22 23 24 26 28 29 30 31 31 31 31 29 28 26 23 20 17 14 10 6 3 2 4 6 7 8 7 6 5 4 3 2
59 59 59 60 60 61 60 60 58 57 55 53 52 50 49 49 49 49 48 48 48 48 47 46 45 44 43 42 40 38 36 34 32 29 27 25 23 21 19 17 16 15 15 14 14 15 15 16 17 17 18 19 20 21 22 23 25 27 28 30 30 31 30 29 28 26 23 20 16 13 9 5 3 4 7 9 10 10 10 9 8 7 6 5 4 3
58 59 60 60 60 60 59 57 55 53 52 50 49 48 48 48 48 48 48 48 47 46 46 45 43 42 40 38 36 34 32 30 28 25 23 21 19 17 15 14 14 13 14 14 14 15 15 16 16 17 18 19 20 21 23 24 26 27 29 29 30 29 28 26 23 20 16 13 9 5 4 6 9 11 12 13 12 12 11 10 9 8 6 5 4 4
58 59 59 59 58 57 56 54 52 50 49 48 47 47 47 47 47 47 47 46 46 45 44 42 41 39 37 35 32 30 28 25 23 21 19 17 15 14 13 13 13 13 14 14 15 15 15 16 16 17 18 19 21 22 24 26 27 28 28 28 27 26 24 20 17 13 8 6 5 8 10 13 14 15 15 14 13 13 11 10 9 8 7 6 5 4
58 59 58 57 56 54 52 50 49 48 47 47 47 47 47 47 46 46 45 44 44 42 41 39 38 35 33 31 28 26 23 21 19 17 15 14 13 12 12 12 13 13 14 14 15 15 15 16 16 17 19 20 22 24 26 27 27 27 27 26 23 20 16 12 9 6 6 9 12 14 16 16 16 16 16 15 15 13 12 11 9 8 7 6 5 5
58 57 56 54 53 51 49 47 46 46 46 46 46 46 46 46 45 45 44 43 41 40 38 36 34 31 29 26 24 21 19 17 15 13 12 11 11 11 11 12 13 14 14 15 15 15 15 16 17 19 20 22 24 25 26 27 26 25 24 21 17 13 8 6 6 9 12 15 17 18 18 18 18 17 17 16 15 14 12 10 9 8 8 8 8 8
56 55 53 51 49 48 46 46 45 45 45 46 46 46 45 45 44 43 42 40 39 37 35 32 30 27 25 22 20 18 15 14 12 11 10 10 10 11 12 13 13 14 14 14 15 15 16 17 18 20 22 24 25 26 26 25 23 21 18 14 10 7 6 9 12 15 17 18 19 19 19 19 19 18 18 16 15 13 11 10 9 9 10 10 10 10
54 52 50 48 46 45 45 45 45 45 45 45 45 45 44 43 42 41 39 38 36 34 31 29 26 23 21 19 16 14 13 11 10 10 10 10 10 11 12 13 14 14 14 14 15 15 17 18 20 22 24 25 25 25 24 21 18 15 11 8 6 8 12 15 17 18 19 19 20 20 20 20 19 18 17 15 13 11 10 10 11 11 12 12 11 11
50 48 46 45 45 44 44 44 45 45 45 44 44 43 42 41 40 38 37 35 33 30 27 24 22 19 17 15 13 12 11 10 9 9 10 10 11 11 12 13 13 14 14 14 15 16 18 20 22 23 24 24 24 22 19 16 12 8 6 7 10 13 16 18 19 20 20 20 21 21 20 19 18 16 15 13 12 11 12 12 13 13 12 12 11 10
47 45 44 44 44 44 44 44 44 44 44 43 43 42 40 39 37 36 34 32 29 26 24 21 18 16 14 13 11 11 10 10 10 10 10 11 11 12 12 12 13 13 14 15 16 18 20 22 23 24 23 22 19 16 13 9 6 6 8 12 15 17 19 20 20 21 21 21 21 20 19 17 16 15 14 13 13 13 13 13 13 13 13 12 11 10
44 44 43 43 44 44 44 44 44 43 43 42 41 40 38 37 35 33 31 29 26 23 20 17 15 13 12 11 10 10 10 10 10 10 11 11 11 11 12 12 12 13 15 16 18 20 22 23 24 23 21 18 14 10 7 6 7 10 13 16 18 20 20 21 21 22 22 21 20 19 17 16 15 14 14 14 14 14 15 15 14 14 14 13 12 11
43 43 43 43 44 44 44 43 43 42 41 40 39 37 36 34 32 30 28 25 22 19 17 14 13 11 10 10 10 10 10 10 10 11 11 11 11 11 11 12 12 14 16 18 20 21 22 23 22 20 17 13 9 6 7 9 12 14 17 19 20 21 22 22 22 22 21 20 19 17 16 15 15 15 15 16 16 16 16 16 16 15 15 14 13 12
42 42 43 43 43 43 43 42 42 41 39 38 37 35 33 31 29 27 25 22 19 16 14 12 11 10 9 9 9 9 10 10 11 11 11 11 11 11 11 12 13 15 17 19 21 22 22 20 17 14 11 9 7 8 11 13 16 18 19 21 22 22 23 23 22 22 20 19 17 16 16 16 16 16 17 17 17 17 17 17 17 16 16 15 14 14
Wind_Direction
300 300 301 301 302 303 303 304 304 304 304 304 304 304 303 303 302 302 301 301 301 301 301 301 301 300 300 300 300 300 300 299 299 299 299 299 299 299 299 300 300 300 300 300 300 300 300 300 300 300 300 300 300 300 301 301 302 302 303 303 303 303 303 302 301 300 299 298 297 296 295 294 293 292 292 291 291 290 289 289 288 288 287 286 285 284
299 299 300 301 303 303 304 304 304 304 304 304 303 303 303 302 302 302 301 301 301 301 301 301 300 300 300 300 300 300 299 299 299 299 299 299 300 300 300 300 300 300 300 300 300 300 300 300 301 301 301 301 301 302 302 302 303 303 304 304 304 303 303 302 300 299 298 297 296 295 294 294 293 293 292 292 291 291 290 290 289 288 287 286 285 283
298 299 301 302 303 303 304 304 304 304 303 303 303 303 303 302 302 302 302 301 301 301 301 301 300 300 300 300 300 300 299 299 300 300 300 300 300 300 301 301 301 301 301 301 301 301 301 301 301 301 302 302 302 303 303 303 304 304 304 304 304 303 302 300 299 298 297 296 295 295 294 294 294 293 293 293 292 292 291 290 289 288 286 285 284 283
300 301 302 303 303 303 303 303 303 303 303 303 303 303 302 302 302 302 302 301 301 301 301 301 300 300 300 300 300 300 300 300 300 300 300 301 301 301 301 301 301 301 301 301 301 302 302 302 302 302 303 303 303 303 304 304 304 305 304 304 303 302 301 299 298 297 296 295 295 295 295 294 294 294 293 293 292 292 291 290 288 287 285 284 283 283
302 303 303 303 303 303 303 303 303 302 302 302 302 302 302 302 302 302 301 301 301 301 301 301 300 300 300 300 300 300 300 300 301 301 301 301 301 301 301 301 301 302 302 302 302 302 303 303 303 303 303 304 304 304 304 304 305 304 304 303 302 301 299 298 297 296 295 295 295 295 295 295 294 294 294 293 292 291 290 289 287 286 285 284 284 284
303 303 303 303 303 303 302 302 302 302 302 302 302 302 302 302 301 301 301 301 301 300 300 300 300 300 300 301 301 301 301 301 301 301 301 301 301 301 301 302 302 302 302 303 303 303 303 304 304 304 304 304 304 304 304 304 304 304 303 302 301 299 298 297 296 295 295 295 295 295 295 295 295 294 294 293 292 291 289 288 287 286 286 286 286 285
303 303 303 303 302 302 302 302 302 302 302 302 302 302 302 301 301 301 301 301 300 300 300 300 300 300 301 301 301 301 301 301 301 301 301 301 301 302 302 302 302 303 303 303 304 304 304 304 304 304 304 304 304 304 304 304 304 303 303 301 300 298 297 296 296 295 295 295 295 295 295 295 295 294 293 293 291 290 288 287 287 287 287 287 287 286
303 303 302 302 302 302 302 302 302 302 302 302 302 302 302 302 301 301 301 301 301 301 301 301 301 300 300 301 301 301 301 301 301 301 301 301 302 302 302 303 303 303 304 304 304 304 304 304 304 304 304 303 303 303 304 304 303 303 302 300 299 297 297 296 296 295 295 295 295 295 295 295 295 294 293 292 290 289 288 288 288 289 289 288 288 287
302 302 302 302 302 302 303 303 303 303 302 302 302 302 302 302 302 302 301 301 301 301 301 301 301 301 301 300 300 300 301 301 301 301 302 302 302 303 303 303 303 304 304 304 304 304 304 304 304 303 303 303 303 303 303 303 303 302 301 299 298 298 297 297 296 296 296 296 296 296 296 295 295 294 293 291 290 290 289 290 290 290 290 289 288 287
302 302 302 302 303 303 303 303 303 303 302 302 302 302 302 302 302 302 302 301 301 301 301 301 301 301 301 301 301 301 301 301 301 302 302 303 303 303 303 304 304 304 304 304 304 304 304 303 303 303 302 302 302 303 303 303 302 301 300 299 299 299 298 298 297 297 297 297 296 296 296 295 295 293 292 291 291 291 291 291 291 291 290 290 289 288
302 303 303 303 303 303 303 303 303 303 303 302 302 302 302 302 302 302 301 301 301 301 301 301 301 301 301 301 301 301 301 302 302 302 303 303 303 303 304 304 304 304 304 304 304 304 303 303 302 302 302 302 302 302 303 302 302 301 300 300 300 299 299 299 298 298 297 297 297 297 297 296 295 293 292 292 292 293 293 293 293 292 291 290 289 288
303 303 303 303 303 303 303 303 303 303 303 302 302 302 302 302 302 302 301 301 301 301 301 301 301 301 301 302 302 302 302 302 303 303 303 303 304 304 304 304 304 304 304 304 303 303 302 302 301 301 301 301 302 302 302 302 301 301 301 301 301 300 300 299 299 298 298 298 298 298 297 296 295 294 294 294 294 294 295 294 294 293 292 291 289 288
304 304 304 304 304 303 303 303 303 303 303 302 302 302 302 302 302 302 302 302 302 301 302 302 302 302 302 302 302 302 303 303 303 303 304 304 304 304 304 304 304 304 304 303 303 302 302 301 301 300 300 300 301 301 301 301 301 301 301 301 301 300 300 299 299 299 299 299 298 298 297 296 295 295 295 296 296 296 296 295 294 293 292 291 290 289
304 304 304 304 304 304 303 303 303 303 303 303 303 302 302 302 302 302 302 302 302 302 302 302 302 302 302 303 303 303 303 303 304 304 304 304 304 304 304 304 304 304 303 303 302 301 301 300 300 299 299 300 300 300 301 301 301 301 301 301 301 300 300 299 299 299 299 299 299 298 297 296 296 297 297 297 298 297 297 296 295 294 293 292 291 289
304 304 304 304 304 304 304 303 303 303 303 303 303 303 302 302 302 302 302 302 302 302 302 303 303 303 303 303 303 304 304 304 304 304 304 304 304 304 304 304 304 303 303 302 302 301 300 300 299 299 299 299 299 300 300 300 301 301 301 301 300 300 300 299 299 299 299 299 298 298 297 297 298 298 299 299 298 298 297 296 295 294 293 292 291 291
305 304 304 304 304 304 304 303 303 303 303 303 303 302 302 302 302 303 303 303 303 303 303 304 304 304 304 304 304 304 304 305 304 304 304 304 304 304 304 304 303 303 303 302 301 300 300 299 298 298 298 298 298 299 299 300 301 301 301 301 300 300 299 299 299 299 299 299 298 298 298 298 299 299 299 299 299 298 297 296 295 295 294 293 293 292
305 305 305 304 304 304 304 303 303 303 303 303 303 303 303 303 303 303 303 304 304 304 304 305 305 305 305 305 305 305 305 305 305 305 305 305 305 305 304 304 303 303 302 302 301 300 299 298 298 297 297 297 298 298 299 300 301 301 301 301 300 300 300 299 299 299 299 298 298 298 299 299 300 300 300 299 298 298 297 296 296 295 295 295 294 294
305 305 305 304 304 304 304 304 304 303 303 303 303 303 303 304 304 304 304 305 305 305 306 306 306 306 306 306 306 306 306 306 306 305 305 305 305 305 305 304 304 303 302 301 300 300 299 298 297 297 297 297 297 298 299 300 301 302 302 301 300 300 300 299 299 299 299 298 298 299 300 300 301 301 300 299 299 298 297 297 296 296 296 296 296 296
306 306 305 305 305 305 304 304 304 304 304 304 304 304 305 305 305 305 305 306 306 306 306 307 307 307 307 307 307 306 307 307 306 306 306 306 306 306 306 305 304 303 302 301 300 299 299 298 297 297 297 297 297 298 299 301 302 302 302 301 301 300 300 299 299 299 299 299 299 300 301 301 301 301 300 299 299 298 298 297 297 297 297 297 297 297
306 306 306 305 305 305 305 305 305 305 305 305 305 305 306 306 306 306 306 307 307 307 307 307 307 307 307 307 307 307 307 307 307 307 307 307 307 307 306 305 304 303 302 301 300 299 299 298 298 297 297 297 298 299 300 301 302 303 302 301 301 300 300 299 299 299 299 300 300 301 302 302 302 301 301 300 299 299 298 298 298 298 298 298 298 298
307 307 306 306 306 306 306 306 306 306 306 306 306 307 307 307 307 307 307 308 308 308 308 308 308 308 308 308 308 308 308 308 308 308 308 308 307 307 306 305 304 303 302 301 300 299 299 298 298 298 297 298 298 299 300 302 303 303 302 301 301 300 300 299 299 299 300 301 301 302 302 302 302 302 301 301 300 300 299 299 299 299 299 299 299 299
307 307 307 307 307 307 307 307 307 307 307 307 307 308 308 308 308 308 308 308 309 309 309 309 309 309 309 309 309 309 309 309 308 308 308 308 308 307 306 305 304 303 302 301 300 299 299 298 298 298 297 297 298 299 301 302 303 303 302 302 301 300 300 299 299 300 301 302 302 303 303 303 303 303 302 302 302 301 301 300 300 300 300 299 299 300
307 307 307 307 307 307 307 307 307 307 308 308 308 308 308 309 309 309 309 309 309 309 309 309 309 309 309 309 309 309 309 309 309 308 308 308 307 307 306 305 304 303 302 301 300 299 299 298 298 297 297 297 298 299 301 302 303 303 302 301 301 300 300 299 300 301 302 302 303 303 304 304 304 304 304 304 303 303 302 302 301 301 300 300 300 300
308 308 308 308 308 308 308 308 308 308 308 309 309 309 309 309 309 309 309 309 310 309 309 310 310 310 310 310 309 309 309 309 309 308 307 307 307 306 305 305 304 303 302 301 300 299 299 298 297 297 296 296 297 299 301 302 303 302 302 301 300 300 300 300 301 302 302 303 304 304 304 305 305 305 305 305 305 304 303 303 302 302 301 301 300 300
308 308 308 308 308 308 308 308 308 309 309 309 309 309 309 309 310 310 310 310 310 310 310 310 310 310 310 310 309 309 309 309 308 308 307 307 306 306 305 304 303 302 302 301 300 299 298 298 297 296 295 296 297 299 301 302 302 302 301 301 300 300 300 301 302 303 303 304 304 305 305 306 306 306 306 306 305 305 304 303 302 302 301 301 300 300
309 308 308 308 308 308 308 309 309 309 309 309 310 310 310 310 310 310 310 311 311 311 310 310 310 310 310 310 309 309 309 308 308 307 307 307 306 306 305 304 303 302 302 301 301 300 299 297 296 295 295 295 297 298 301 302 302 302 301 300 300 300 301 302 303 304 304 304 305 306 306 307 307 307 307 306 305 305 304 303 302 301 301 300 299 299
309 309 309 309 309 309 309 309 309 310 310 310 310 310 310 310 310 311 311 311 311 311 311 311 311 310 310 310 309 309 309 308 308 308 307 306 306 306 305 304 303 302 302 302 301 300 299 297 296 294 294 295 297 299 301 302 302 301 301 300 300 301 302 303 304 304 305 305 306 306 307 307 308 307 307 306 305 305 304 303 302 301 300 299 298 298
309 309 309 309 309 309 310 310 310 310 310 310 310 310 311 311 311 311 311 311 311 311 311 311 311 310 310 310 309 309 309 308 308 308 307 306 306 306 305 305 304 303 303 302 301 300 299 297 295 294 294 295 297 299 301 301 302 301 301 301 301 302 303 304 305 305 305 306 306 307 308 308 308 308 307 306 306 305 304 303 302 301 300 298 297 297
309 309 309 309 309 310 310 310 310 311 311 311 311 311 311 311 312 312 312 312 311 311 311 311 311 310 310 310 309 309 309 309 308 308 307 307 306 306 306 305 304 304 303 302 301 300 298 296 295 294 295 296 298 299 301 301 302 301 301 302 302 304 305 305 305 305 306 306 307 308 308 309 308 308 307 306 306 305 304 303 302 301 299 298 297 297
309 309 309 310 310 310 310 311 311 311 311 311 311 311 312 312 312 312 312 311 311 311 311 311 311 310 310 310 309 309 309 309 308 308 307 307 306 306 306 305 305 304 304 302 301 299 297 295 294 294 295 296 298 300 301 301 301 301 302 303 304 305 306 306 306 306 306 307 308 309 309 309 308 308 307 306 305 305 304 303 302 300 299 297 296 296
310 310 310 310 310 311 311 311 311 311 311 311 311 312 312 312 312 312 311 311 311 311 311 311 311 310 310 310 310 309 309 309 309 308 307 307 307 306 306 306 305 305 304 302 300 298 296 294 293 294 295 297 299 300 301 301 301 301 302 304 305 306 306 307 307 307 308 308 309 309 309 309 308 307 307 306 305 305 304 303 302 300 299 297 295 294
310 310 310 311 311 311 311 311 311 311 311 311 311 312 312 312 312 311 311 311 311 311 311 311 311 311 310 310 310 309 309 309 309 308 308 307 307 307 306 306 305 304 303 302 300 298 296 294 293 293 295 297 298 300 300 301 301 302 303 305 306 307 307 307 308 308 309 309 310 310 310 309 308 307 307 306 306 305 304 303 302 300 298 296 293 289
311 311 311 311 311 311 311 311 311 311 311 311 311 312 312 312 312 312 311 311 311 311 311 311 311 311 311 310 310 310 309 309 309 308 308 307 307 307 306 306 305 304 302 301 299 298 297 295 295 295 296 297 298 300 300 301 302 303 304 306 307 307 308 308 308 309 310 310 310 310 310 309 308 308 307 307 306 306 305 304 302 300 296 293 287 280
311 311 312 312 312 312 312 312 311 311 311 312 312 312 312 312 312 312 312 312 312 312 312 311 311 311 311 310 310 310 309 309 309 308 308 307 307 307 306 305 304 303 302 300 299 298 298 298 298 298 298 298 299 300 301 302 303 305 306 307 308 308 308 309 309 310 310 311 310 310 309 309 308 308 307 307 306 305 305 303 301 298 292 285 275 265
312 312 312 312 312 312 312 312 312 312 312 312 312 312 312 312 312 312 312 312 312 312 312 312 311 311 311 310 310 310 309 309 309 308 308 307 307 307 306 305 304 302 301 299 298 298 299 300 300 300 300 300 301 302 303 304 306 306 307 308 308 309 309 310 310 311 311 311 310 310 309 309 308 308 307 307 306 305 304 302 298 292 282 267 252 244
312 312 312 312 312 312 312 312 312 312 312 313 313 313 313 313 313 313 313 313 312 312 312 312 311 311 311 310 310 310 309 309 309 308 308 308 307 307 306 305 303 302 300 299 299 300 301 302 302 302 301 302 303 304 306 307 308 309 309 309 309 310 310 311 311 311 311 311 310 310 309 309 308 307 307 306 305 304 302 299 292 275 242 212 206 216
313 313 313 313 313 313 313 313 313 313 313 313 314 314 314 314 314 313 313 313 313 312 312 312 312 311 311 311 310 310 310 309 309 309 308 308 307 307 306 305 303 301 300 300 301 303 304 305 304 303 303 303 305 307 309 310 310 311 311 311 311 312 312 312 312 312 312 312 311 311 310 309 308 307 306 306 305 304 301 288 185 148 142 143 151 173
313 313 313 313 313 313 313 313 314 314 314 314 314 315 314 314 314 314 314 313 313 313 312 312 312 312 312 311 311 310 310 310 310 309 309 309 308 307 306 305 303 302 302 303 304 306 307 306 306 305 305 306 308 310 311 312 312 312 312 313 313 313 313 313 313 313 313 313 312 312 311 311 310 309 309 310 314 341 111 119 120 119 118 117 119 125
314 314 314 314 314 314 314 314 314 314 315 315 315 315 315 314 314 314 314 313 313 313 313 313 313 312 312 312 312 311 311 311 311 311 310 310 309 308 307 305 304 304 305 307 309 310 310 309 307 307 308 310 311 312 313 313 313 314 314 314 314 314 314 315 315 315 315 315 315 315 314 315 316 322 342 67 99 106 109 109 108 106 103 100 99 102
314 314 314 314 314 314 314 315 315 315 315 315 315 315 315 315 314 314 314 314 314 314 314 314 314 313 313 313 313 313 313 313 312 312 312 312 311 310 308 307 307 307 309 311 312 313 312 311 311 311 312 313 314 314 314 314 314 315 315 315 315 315 316 317 317 317 318 318 319 321 326 338 22 81 98 103 104 104 102 101 99 97 95 91 89 86
314 314 314 314 315 315 315 315 315 316 316 316 316 315 315 315 315 315 314 315 315 315 315 315 315 315 314 314 314 314 314 315 315 315 315 314 313 312 311 311 311 312 313 315 315 316 315 315 315 315 316 316 316 315 315 315 316 316 316 316 316 317 318 319 320 321 323 327 335 356 47 84 97 102 102 101 99 97 96 94 93 93 93 91 87 83
314 314 315 315 315 315 315 316 316 316 316 316 316 316 316 315 315 315 315 315 316 316 316 316 316 316 316 316 316 317 317 317 318 318 318 317 317 316 316 316 316 317 317 317 318 318 319 319 319 319 319 318 317 317 317 317 317 317 317 318 319 320 322 323 326 332 344 13 57 84 96 100 101 100 98 96 94 92 91 90 90 91 91 89 83 73
315 315 315 315 315 315 316 316 316 316 316 316 316 316 316 316 316 316 316 317 317 317 317 317 317 317 317 318 318 320 321 321 322 322 322 321 321 321 320 320 320 320 320 320 321 321 322 322 322 321 320 319 319 319 319 319 319 319 320 321 323 326 329 335 346 14 61 86 96 100 101 99 97 95 94 92 90 90 90 90 90 88 84 76 67 57
315 315 315 316 316 316 316 317 317 317 317 317 317 317 317 317 317 317 317 317 318 318 318 318 319 319 320 320 322 324 326 327 327 327 326 326 326 325 325 323 322 322 322 323 324 325 325 325 324 322 321 321 320 320 321 321 321 322 324 326 330 337 350 18 59 85 97 101 102 101 99 97 95 93 92 91 91 91 90 89 85 79 70 61 54 49
316 316 316 316 316 317 317 317 318 318 318 317 317 317 317 317 318 318 318 318 319 319 319 320 321 321 322 324 326 329 332 333 333 332 331 330 330 329 327 325 324 324 324 325 327 328 328 326 325 324 323 322 322 323 323 324 325 327 331 336 347 13 56 85 97 102 103 103 101 99 97 95 94 94 94 93 92 90 87 82 74 67 60 54 50 47
316 317 317 317 317 318 318 318 318 318 318 318 318 318 318 318 318 319 319 319 320 320 321 322 323 324 326 328 332 335 337 338 338 336 335 334 333 331 329 327 326 326 327 329 330 330 329 327 326 325 324 324 325 325 326 328 331 336 346 5 46 82 97 103 106 105 104 102 99 98 97 96 96 96 95 93 91 86 79 71 63 58 53 49 45 42
317 318 318 318 318 318 319 319 319 319 319 319 319 319 319 319 319 319 320 320 321 322 323 324 326 328 330 334 337 340 342 341 340 339 338 336 335 333 331 329 328 329 330 332 332 331 329 328 327 326 326 327 328 328 330 335 343 0 35 74 95 104 107 108 107 105 103 100 99 98 98 99 99 98 96 92 86 77 68 61 55 50 46 42 38 34
318 318 319 319 319 319 320 320 320 320 319 319 319 319 320 320 320 320 321 321 322 324 325 327 329 332 335 339 341 343 343 342 341 341 340 338 337 335 334 333 332 333 333 333 333 331 329 328 328 328 329 331 332 334 339 352 18 61 91 103 108 109 109 107 105 103 101 100 100 100 100 100 99 96 91 84 76 67 59 53 48 43 39 34 30 25
319 319 320 320 320 320 320 320 320 320 320 320 320 320 320 321 321 321 321 323 324 326 328 330 333 336 339 342 343 344 343 343 342 342 341 340 339 338 338 337 336 336 335 333 332 331 330 329 329 330 333 337 341 349 9 47 82 100 108 111 111 109 107 105 103 101 100 100 100 101 100 97 92 86 80 73 65 57 50 45 40 35 31 27 23 19
320 320 320 320 320 321 321 321 321 321 320 320 320 321 321 321 321 322 323 324 326 328 330 333 336 339 342 344 344 344 343 343 343 342 342 341 341 341 341 340 339 337 335 333 332 331 331 332 333 335 340 349 4 36 76 96 106 110 112 112 110 107 104 102 101 100 100 100 100 98 95 89 82 75 68 62 55 48 42 37 32 28 24 21 17 14
321 321 321 321 321 321 321 321 321 321 321 321 321 321 322 322 322 323 324 326 328 330 333 336 338 341 344 344 344 344 344 344 343 343 343 343 343 343 343 341 339 337 335 333 332 332 334 336 340 347 360 18 50 86 102 109 113 113 112 110 107 105 103 101 100 100 99 98 96 91 86 79 73 67 61 55 48 42 36 31 26 22 18 15 12 11